Date String (YYYY-MM-DD hh:mm:ss) UTC,Instrument flags,Ambient pressure (hPa),Sample flow (lpm),Bypass flow (lpm),Sample temperature (°C),Ambient temperature (°C),ASC tube jacket temperature (°C),LED temperature (°C),Box temperature (°C),Sample RH (%),Span deviation,Mass concentration (μg/m³),Mass concentration (μg/m³),Mass concentration (μg/m³)
DateTimeUTC,F1_M11,P_M11,Q1_M11,Q2_M11,T1_M11,T2_M11,T3_M11,T4_M11,T5_M11,U1_M11,ZSPAN_M11,X0_M11,X2_M11,X1_M11
2022-11-14 07:00:00,,0826.4,4.99,0.00,22.6,21.1,00.0,31.4,24.5,09.4,0000.0,0008.68,0004.39,0003.98
2022-11-14 07:01:00,,0826.4,5.02,0.00,22.6,21.1,00.0,31.4,24.5,09.5,0000.0,0008.61,0004.38,0003.99
2022-11-14 07:02:00,,0826.4,4.99,0.00,22.6,21.1,00.0,31.4,24.5,09.7,0000.0,0008.57,0004.37,0003.98
2022-11-14 07:03:00,,0826.4,5.01,0.00,22.7,21.4,00.0,31.4,24.6,09.8,0000.0,0008.50,0004.36,0003.96
2022-11-14 07:04:00,,0826.3,5.01,0.00,22.7,22.1,00.0,31.4,24.7,09.8,0000.0,0008.52,0004.34,0003.96
2022-11-14 07:05:00,,0826.4,4.98,0.00,22.8,22.3,00.0,31.4,24.8,09.8,0000.0,0008.39,0004.29,0003.95
2022-11-14 07:06:00,,0826.3,5.00,0.00,22.8,22.1,00.0,31.5,24.8,09.9,0000.0,0008.92,0004.27,0003.93
2022-11-14 07:07:00,,0826.4,5.01,0.00,22.8,21.9,00.0,31.5,24.8,09.9,0000.0,0008.88,0004.25,0003.92
2022-11-14 07:08:00,,0826.4,5.00,0.00,22.8,21.8,00.0,31.5,24.7,09.9,0000.0,0008.84,0004.23,0003.91
2022-11-14 07:09:00,,0826.3,5.00,0.00,22.8,21.8,00.0,31.5,24.7,09.9,0000.0,0008.62,0004.19,0003.90
2022-11-14 07:10:00,,0826.3,5.01,0.00,22.8,21.7,00.0,31.5,24.7,10.0,0000.0,0008.22,0004.15,0003.88
2022-11-14 07:11:00,,0826.2,4.99,0.00,22.8,21.6,00.0,31.6,24.6,10.1,0000.0,0008.16,0004.14,0003.86
2022-11-14 07:12:00,,0826.2,5.00,0.00,22.8,21.6,00.0,31.6,24.6,10.2,0000.0,0008.12,0004.11,0003.83
2022-11-14 07:13:00,,0826.2,5.01,0.00,22.8,21.5,00.0,31.6,24.6,10.2,0000.0,0008.25,0004.10,0003.82
2022-11-14 07:14:00,,0826.2,4.99,0.00,22.7,21.5,00.0,31.6,24.6,10.3,0000.0,0008.14,0004.08,0003.83
2022-11-14 07:15:00,,0826.2,5.00,0.00,22.7,21.5,00.0,31.6,24.6,10.3,0000.0,0008.20,0004.08,0003.81
2022-11-14 07:16:00,,0826.2,5.02,0.00,22.7,21.4,00.0,31.6,24.6,10.4,0000.0,0007.96,0004.09,0003.81
2022-11-14 07:17:00,,0826.2,4.98,0.00,22.7,21.4,00.0,31.6,24.6,10.4,0000.0,0007.60,0004.08,0003.81
2022-11-14 07:18:00,,0826.2,5.00,0.00,22.7,21.4,00.0,31.6,24.6,10.5,0000.0,0007.83,0004.06,0003.79
2022-11-14 07:19:00,,0826.2,4.99,0.00,22.7,21.3,00.0,31.5,24.6,10.5,0000.0,0007.85,0004.06,0003.78
2022-11-14 07:20:00,,0826.2,5.01,0.00,22.7,21.3,00.0,31.5,24.6,10.6,0000.0,0007.85,0004.04,0003.76
2022-11-14 07:21:00,,0826.2,5.00,0.00,22.7,21.3,00.0,31.5,24.6,10.6,0000.0,0007.81,0004.02,0003.75
2022-11-14 07:22:00,,0826.2,5.00,0.00,22.7,21.3,00.0,31.6,24.5,10.7,0000.0,0007.92,0004.01,0003.73
2022-11-14 07:23:00,,0826.2,5.01,0.00,22.7,21.3,00.0,31.6,24.5,10.7,0000.0,0008.31,0004.01,0003.72
2022-11-14 07:24:00,,0826.2,4.98,0.00,22.7,21.3,00.0,31.5,24.5,10.8,0000.0,0008.03,0003.97,0003.69
2022-11-14 07:25:00,,0826.2,5.00,0.00,22.7,21.3,00.0,31.5,24.5,10.9,0000.0,0007.81,0003.94,0003.66
2022-11-14 07:26:00,,0826.2,5.01,0.00,22.7,21.2,00.0,31.5,24.6,10.9,0000.0,0007.64,0003.89,0003.62
2022-11-14 07:27:00,,0826.2,5.00,0.00,22.7,21.2,00.0,31.5,24.5,11.0,0000.0,0007.61,0003.85,0003.58
2022-11-14 07:28:00,,0826.2,5.00,0.00,22.7,21.2,00.0,31.5,24.6,11.0,0000.0,0007.23,0003.82,0003.55
2022-11-14 07:29:00,,0826.2,5.00,0.00,22.7,21.2,00.0,31.5,24.6,10.9,0000.0,0007.26,0003.80,0003.53
2022-11-14 07:30:00,,0826.2,4.99,0.00,22.7,21.2,00.0,31.5,24.5,10.9,0000.0,0007.48,0003.79,0003.52
2022-11-14 07:31:00,,0826.2,5.00,0.00,22.6,21.2,00.0,31.4,24.5,10.9,0000.0,0007.45,0003.79,0003.52
2022-11-14 07:32:00,,0826.2,5.00,0.00,22.6,21.2,00.0,31.4,24.5,10.9,0000.0,0007.41,0003.78,0003.51
2022-11-14 07:33:00,,0826.2,5.01,0.00,22.6,21.2,00.0,31.4,24.5,11.0,0000.0,0007.10,0003.75,0003.49
2022-11-14 07:34:00,,0826.2,5.00,0.00,22.6,21.2,00.0,31.4,24.5,11.0,0000.0,0006.36,0003.71,0003.46
2022-11-14 07:35:00,,0826.1,5.01,0.00,22.6,21.1,00.0,31.4,24.5,11.0,0000.0,0007.30,0003.73,0003.46
2022-11-14 07:36:00,,0826.1,4.99,0.00,22.6,21.1,00.0,31.4,24.5,11.1,0000.0,0007.84,0003.74,0003.45
2022-11-14 07:37:00,,0826.2,5.00,0.00,22.6,21.1,00.0,31.4,24.5,11.1,0000.0,0007.84,0003.73,0003.44
2022-11-14 07:38:00,,0826.2,5.01,0.00,22.6,21.1,00.0,31.4,24.5,11.1,0000.0,0008.03,0003.72,0003.44
2022-11-14 07:39:00,,0826.2,4.99,0.00,22.6,21.1,00.0,31.4,24.5,11.1,0000.0,0008.00,0003.72,0003.43
2022-11-14 07:40:00,,0826.2,4.99,0.00,22.6,21.1,00.0,31.4,24.5,11.1,0000.0,0007.62,0003.68,0003.40
2022-11-14 07:41:00,,0826.1,5.00,0.00,22.6,21.1,00.0,31.4,24.5,11.1,0000.0,0007.48,0003.65,0003.37
2022-11-14 07:42:00,,0826.1,4.99,0.00,22.6,21.1,00.0,31.3,24.5,11.1,0000.0,0007.39,0003.60,0003.33
2022-11-14 07:43:00,,0826.0,5.00,0.00,22.6,21.8,00.0,31.3,24.6,11.0,0000.0,0007.37,0003.57,0003.30
2022-11-14 07:44:00,,0826.1,5.03,0.00,22.7,22.4,00.0,31.3,24.8,11.0,0000.0,0007.33,0003.54,0003.28
2022-11-14 07:45:00,,0826.0,4.98,0.00,22.8,22.3,00.0,31.4,24.8,11.0,0000.0,0007.22,0003.52,0003.27
2022-11-14 07:46:00,,0826.0,5.02,0.00,22.8,22.1,00.0,31.4,24.8,11.0,0000.0,0006.24,0003.49,0003.25
2022-11-14 07:47:00,,0826.0,4.99,0.00,22.8,21.9,00.0,31.4,24.7,11.0,0000.0,0005.51,0003.43,0003.23
2022-11-14 07:48:00,,0826.0,5.01,0.00,22.8,21.8,00.0,31.5,24.7,11.0,0000.0,0005.68,0003.44,0003.24
2022-11-14 07:49:00,,0826.0,4.99,0.00,22.8,21.7,00.0,31.5,24.7,11.0,0000.0,0005.17,0003.40,0003.22
2022-11-14 07:50:00,,0826.0,5.01,0.00,22.8,21.6,00.0,31.5,24.6,11.0,0000.0,0004.78,0003.38,0003.21
2022-11-14 07:51:00,,0825.9,4.99,0.00,22.8,21.6,00.0,31.5,24.6,11.0,0000.0,0004.71,0003.36,0003.19
2022-11-14 07:52:00,,0826.0,5.00,0.00,22.7,21.5,00.0,31.6,24.6,11.0,0000.0,0004.49,0003.33,0003.18
2022-11-14 07:53:00,,0825.9,4.99,0.00,22.7,21.5,00.0,31.6,24.6,11.0,0000.0,0004.61,0003.34,0003.18
2022-11-14 07:54:00,,0825.9,5.00,0.00,22.7,21.4,00.0,31.6,24.6,11.0,0000.0,0004.66,0003.33,0003.17
2022-11-14 07:55:00,,0825.9,5.01,0.00,22.7,21.4,00.0,31.6,24.6,11.0,0000.0,0004.99,0003.36,0003.18
2022-11-14 07:56:00,,0825.9,4.99,0.00,22.7,21.4,00.0,31.6,24.5,11.1,0000.0,0005.12,0003.39,0003.20
2022-11-14 07:57:00,,0825.9,5.01,0.00,22.7,21.4,00.0,31.6,24.5,11.1,0000.0,0005.19,0003.42,0003.21
2022-11-14 07:58:00,,0825.9,4.99,0.00,22.7,21.4,00.0,31.6,24.5,11.1,0000.0,0004.94,0003.42,0003.22
2022-11-14 07:59:00,,0825.8,5.01,0.00,22.7,21.3,00.0,31.5,24.6,11.1,0000.0,0004.73,0003.42,0003.22
